QPF
0.00 0.00 0.00 0.00 0.00 0.00 0.00 0.00 0.00 0.00 0.00 0.00 0.00 0.00 0.00 0.00 0.00 0.00 0.00 0.00 0.00 0.00 0.00 0.00 0.00 0.00 0.00 0.00 0.00 0.00 0.00 0.00 0.00 0.00 0.00 0.00 0.00 0.00 0.00 0.00 0.00 0.00 0.00 0.00
0.00 0.00 0.00 0.00 0.00 0.00 0.00 0.00 0.00 0.00 0.00 0.00 0.00 0.00 0.00 0.00 0.00 0.00 0.00 0.00 0.00 0.00 0.00 0.00 0.00 0.00 0.00 0.00 0.00 0.00 0.00 0.00 0.00 0.00 0.00 0.00 0.00 0.00 0.00 0.00 0.00 0.00 0.00 0.00
0.00 0.00 0.00 0.00 0.00 0.00 0.00 0.00 0.00 0.00 0.00 0.00 0.00 0.00 0.00 0.00 0.00 0.00 0.00 0.00 0.00 0.00 0.00 0.00 0.00 0.00 0.00 0.00 0.00 0.00 0.00 0.00 0.00 0.00 0.00 0.00 0.00 0.00 0.00 0.00 0.00 0.00 0.00 0.00
0.00 0.00 0.00 0.00 0.00 0.00 0.00 0.00 0.00 0.00 0.00 0.00 0.00 0.00 0.00 0.00 0.00 0.00 0.00 0.00 0.00 0.00 0.00 0.00 0.00 0.00 0.00 0.00 0.00 0.00 0.00 0.00 0.00 0.00 0.00 0.00 0.00 0.00 0.00 0.00 0.00 0.00 0.00 0.00
0.00 0.00 0.00 0.00 0.00 0.00 0.00 0.00 0.00 0.00 0.00 0.00 0.00 0.00 0.00 0.00 0.00 0.00 0.00 0.00 0.00 0.00 0.00 0.00 0.00 0.00 0.00 0.00 0.00 0.00 0.00 0.00 0.00 0.00 0.00 0.00 0.00 0.00 0.00 0.00 0.00 0.00 0.00 0.00
0.00 0.00 0.00 0.00 0.00 0.00 0.00 0.00 0.00 0.00 0.00 0.00 0.00 0.00 0.00 0.00 0.00 0.00 0.00 0.00 0.00 0.00 0.00 0.00 0.00 0.00 0.00 0.00 0.00 0.00 0.00 0.00 0.00 0.00 0.00 0.00 0.00 0.00 0.00 0.00 0.00 0.00 0.00 0.00
0.00 0.00 0.00 0.00 0.00 0.00 0.00 0.00 0.00 0.00 0.00 0.00 0.00 0.00 0.00 0.00 0.00 0.00 0.00 0.00 0.00 0.00 0.00 0.00 0.00 0.00 0.00 0.00 0.00 0.00 0.00 0.00 0.00 0.00 0.00 0.00 0.00 0.00 0.00 0.00 0.00 0.00 0.00 0.00
0.00 0.00 0.00 0.00 0.00 0.00 0.00 0.00 0.00 0.00 0.00 0.00 0.00 0.00 0.00 0.00 0.00 0.00 0.00 0.00 0.00 0.00 0.00 0.00 0.00 0.00 0.00 0.00 0.00 0.00 0.00 0.00 0.00 0.00 0.00 0.00 0.00 0.00 0.00 0.00 0.00 0.00 0.00 0.00
0.00 0.00 0.00 0.00 0.00 0.00 0.00 0.00 0.00 0.00 0.00 0.00 0.00 0.00 0.00 0.00 0.00 0.00 0.00 0.00 0.00 0.00 0.00 0.00 0.00 0.00 0.00 0.00 0.00 0.00 0.00 0.00 0.00 0.00 0.00 0.00 0.00 0.00 0.00 0.00 0.00 0.00 0.00 0.00
0.00 0.00 0.00 0.00 0.00 0.00 0.00 0.00 0.00 0.00 0.00 0.00 0.00 0.00 0.00 0.00 0.00 0.00 0.00 0.00 0.00 0.00 0.00 0.00 0.00 0.00 0.00 0.00 0.00 0.00 0.00 0.00 0.00 0.00 0.00 0.00 0.00 0.00 0.00 0.00 0.00 0.00 0.00 0.00
0.00 0.00 0.00 0.00 0.00 0.00 0.00 0.00 0.00 0.00 0.00 0.00 0.00 0.00 0.00 0.00 0.00 0.00 0.00 0.00 0.00 0.00 0.00 0.00 0.00 0.00 0.00 0.00 0.00 0.00 0.00 0.00 0.00 0.00 0.00 0.00 0.00 0.00 0.00 0.00 0.00 0.00 0.00 0.00
0.00 0.00 0.00 0.00 0.00 0.00 0.00 0.00 0.00 0.00 0.00 0.00 0.00 0.00 0.00 0.00 0.00 0.00 0.00 0.00 0.00 0.00 0.00 0.00 0.00 0.00 0.00 0.00 0.00 0.00 0.00 0.00 0.00 0.00 0.00 0.00 0.00 0.00 0.00 0.00 0.00 0.00 0.00 0.00
0.00 0.00 0.00 0.00 0.00 0.00 0.00 0.00 0.00 0.00 0.00 0.00 0.00 0.00 0.00 0.00 0.00 0.00 0.00 0.00 0.00 0.00 0.00 0.00 0.00 0.00 0.00 0.00 0.00 0.00 0.00 0.00 0.00 0.00 0.00 0.00 0.00 0.00 0.00 0.00 0.00 0.00 0.00 0.00
0.00 0.00 0.00 0.00 0.00 0.00 0.00 0.00 0.00 0.00 0.00 0.00 0.00 0.00 0.00 0.00 0.00 0.00 0.00 0.00 0.00 0.00 0.00 0.00 0.00 0.00 0.00 0.00 0.00 0.00 0.00 0.00 0.00 0.00 0.00 0.00 0.00 0.00 0.00 0.00 0.00 0.00 0.00 0.00
0.00 0.00 0.00 0.00 0.00 0.00 0.00 0.00 0.00 0.00 0.00 0.00 0.00 0.00 0.00 0.00 0.00 0.00 0.00 0.00 0.00 0.00 0.00 0.00 0.00 0.00 0.00 0.00 0.00 0.00 0.00 0.00 0.00 0.00 0.00 0.00 0.00 0.00 0.00 0.00 0.00 0.00 0.00 0.00
0.00 0.00 0.00 0.00 0.00 0.00 0.00 0.00 0.00 0.00 0.00 0.00 0.00 0.00 0.00 0.00 0.00 0.00 0.00 0.00 0.00 0.00 0.00 0.00 0.00 0.00 0.00 0.00 0.00 0.00 0.00 0.00 0.00 0.00 0.00 0.00 0.00 0.00 0.00 0.00 0.00 0.00 0.00 0.00
0.00 0.00 0.00 0.00 0.00 0.00 0.00 0.00 0.00 0.00 0.00 0.00 0.00 0.00 0.00 0.00 0.00 0.00 0.00 0.00 0.00 0.00 0.00 0.00 0.00 0.00 0.00 0.00 0.00 0.00 0.00 0.00 0.00 0.00 0.00 0.00 0.00 0.00 0.00 0.00 0.00 0.00 0.00 0.00
0.00 0.00 0.00 0.00 0.00 0.00 0.00 0.00 0.00 0.00 0.00 0.00 0.00 0.00 0.00 0.00 0.00 0.00 0.00 0.00 0.00 0.00 0.00 0.00 0.00 0.00 0.00 0.00 0.00 0.00 0.00 0.00 0.00 0.00 0.00 0.00 0.00 0.00 0.00 0.00 0.00 0.00 0.00 0.00
0.00 0.00 0.00 0.00 0.00 0.00 0.00 0.00 0.00 0.00 0.00 0.00 0.00 0.00 0.00 0.00 0.00 0.00 0.00 0.00 0.00 0.00 0.00 0.00 0.00 0.00 0.00 0.00 0.00 0.00 0.00 0.00 0.00 0.00 0.00 0.00 0.00 0.00 0.00 0.00 0.00 0.00 0.00 0.00
0.00 0.00 0.00 0.00 0.00 0.00 0.00 0.00 0.00 0.00 0.00 0.00 0.00 0.00 0.00 0.00 0.00 0.00 0.00 0.00 0.00 0.00 0.00 0.00 0.00 0.00 0.00 0.00 0.00 0.00 0.00 0.00 0.00 0.00 0.00 0.00 0.00 0.00 0.00 0.00 0.00 0.00 0.00 0.00
0.00 0.00 0.00 0.00 0.00 0.00 0.00 0.00 0.00 0.00 0.00 0.00 0.00 0.00 0.00 0.00 0.00 0.00 0.00 0.00 0.00 0.00 0.00 0.00 0.00 0.00 0.00 0.00 0.00 0.00 0.00 0.00 0.00 0.00 0.00 0.00 0.00 0.00 0.00 0.00 0.00 0.00 0.00 0.00
0.00 0.00 0.00 0.00 0.00 0.00 0.00 0.00 0.00 0.00 0.00 0.00 0.00 0.00 0.00 0.00 0.00 0.00 0.00 0.00 0.00 0.00 0.00 0.00 0.00 0.00 0.00 0.00 0.00 0.00 0.00 0.00 0.00 0.00 0.00 0.00 0.00 0.00 0.00 0.00 0.00 0.00 0.00 0.00
0.00 0.00 0.00 0.00 0.00 0.00 0.00 0.00 0.00 0.00 0.00 0.00 0.00 0.00 0.00 0.00 0.00 0.00 0.00 0.00 0.00 0.00 0.00 0.00 0.00 0.00 0.00 0.00 0.00 0.00 0.00 0.00 0.00 0.00 0.00 0.00 0.00 0.00 0.00 0.00 0.00 0.00 0.00 0.00
0.00 0.00 0.00 0.00 0.00 0.00 0.00 0.00 0.00 0.00 0.00 0.00 0.00 0.00 0.00 0.00 0.00 0.00 0.00 0.00 0.00 0.00 0.00 0.00 0.00 0.00 0.00 0.00 0.00 0.00 0.00 0.00 0.00 0.00 0.00 0.00 0.00 0.00 0.00 0.00 0.00 0.00 0.00 0.01
0.00 0.00 0.00 0.00 0.00 0.00 0.00 0.00 0.00 0.00 0.00 0.00 0.00 0.00 0.00 0.00 0.00 0.00 0.00 0.00 0.00 0.00 0.00 0.00 0.00 0.00 0.00 0.00 0.00 0.00 0.00 0.00 0.00 0.00 0.00 0.00 0.00 0.00 0.00 0.00 0.00 0.00 0.01 0.01
0.00 0.00 0.00 0.00 0.00 0.00 0.00 0.00 0.00 0.00 0.00 0.00 0.00 0.00 0.00 0.00 0.00 0.00 0.00 0.00 0.00 0.00 0.00 0.00 0.00 0.00 0.00 0.00 0.00 0.00 0.00 0.00 0.00 0.00 0.00 0.00 0.00 0.00 0.00 0.00 0.00 0.00 0.01 0.01
MSLP
1019.17 1019.31 1019.37 1019.38 1019.34 1019.27 1019.15 1018.96 1018.65 1018.19 1017.54 1016.70 1015.69 1014.57 1013.41 1012.33 1011.41 1010.74 1010.37 1010.30 1010.53 1010.99 1011.64 1012.40 1013.22 1014.06 1014.89 1015.71 1016.52 1017.30 1018.07 1018.79 1019.47 1020.08 1020.61 1021.08 1021.48 1021.85 1022.21 1022.58 1022.97 1023.39 1023.83 1024.28
1019.27 1019.32 1019.32 1019.27 1019.20 1019.12 1019.01 1018.84 1018.56 1018.11 1017.46 1016.60 1015.54 1014.34 1013.11 1011.93 1010.92 1010.17 1009.72 1009.60 1009.77 1010.19 1010.80 1011.53 1012.30 1013.10 1013.89 1014.67 1015.44 1016.20 1016.94 1017.65 1018.32 1018.92 1019.46 1019.92 1020.33 1020.70 1021.06 1021.44 1021.85 1022.30 1022.77 1023.26
1019.28 1019.27 1019.21 1019.15 1019.08 1019.03 1018.97 1018.85 1018.61 1018.19 1017.55 1016.67 1015.57 1014.32 1013.01 1011.76 1010.68 1009.87 1009.36 1009.18 1009.29 1009.66 1010.20 1010.86 1011.56 1012.28 1012.99 1013.70 1014.40 1015.11 1015.81 1016.50 1017.15 1017.75 1018.28 1018.73 1019.12 1019.47 1019.80 1020.16 1020.56 1021.01 1021.50 1022.02
1019.23 1019.18 1019.11 1019.06 1019.03 1019.04 1019.05 1018.99 1018.80 1018.41 1017.78 1016.88 1015.74 1014.44 1013.08 1011.77 1010.64 1009.77 1009.21 1008.98 1009.05 1009.35 1009.82 1010.38 1010.98 1011.59 1012.20 1012.80 1013.42 1014.06 1014.71 1015.36 1015.99 1016.57 1017.08 1017.50 1017.86 1018.16 1018.45 1018.76 1019.12 1019.54 1020.02 1020.55
1019.16 1019.09 1019.04 1019.03 1019.07 1019.15 1019.23 1019.24 1019.10 1018.73 1018.09 1017.17 1015.99 1014.64 1013.23 1011.88 1010.71 1009.80 1009.22 1008.95 1008.97 1009.21 1009.59 1010.05 1010.54 1011.02 1011.50 1011.99 1012.51 1013.06 1013.65 1014.25 1014.85 1015.40 1015.88 1016.27 1016.57 1016.81 1017.04 1017.27 1017.56 1017.93 1018.38 1018.90
1019.10 1019.05 1019.03 1019.08 1019.19 1019.35 1019.50 1019.56 1019.45 1019.08 1018.42 1017.46 1016.24 1014.84 1013.39 1012.00 1010.81 1009.90 1009.30 1009.01 1008.99 1009.18 1009.48 1009.84 1010.20 1010.55 1010.89 1011.25 1011.64 1012.10 1012.61 1013.16 1013.71 1014.23 1014.67 1015.01 1015.26 1015.44 1015.58 1015.74 1015.96 1016.26 1016.66 1017.15
1019.09 1019.05 1019.08 1019.18 1019.36 1019.58 1019.78 1019.88 1019.77 1019.39 1018.70 1017.69 1016.42 1014.99 1013.50 1012.11 1010.92 1010.01 1009.41 1009.12 1009.07 1009.20 1009.43 1009.68 1009.92 1010.13 1010.33 1010.55 1010.83 1011.17 1011.60 1012.08 1012.58 1013.05 1013.45 1013.75 1013.95 1014.06 1014.14 1014.22 1014.36 1014.59 1014.94 1015.40
1019.12 1019.11 1019.16 1019.31 1019.54 1019.80 1020.02 1020.12 1019.99 1019.58 1018.84 1017.79 1016.49 1015.03 1013.54 1012.16 1010.99 1010.10 1009.52 1009.24 1009.17 1009.26 1009.41 1009.57 1009.68 1009.76 1009.82 1009.89 1010.04 1010.27 1010.60 1011.00 1011.44 1011.87 1012.23 1012.49 1012.65 1012.71 1012.73 1012.75 1012.83 1013.00 1013.31 1013.73
1019.19 1019.18 1019.26 1019.42 1019.66 1019.93 1020.14 1020.21 1020.05 1019.59 1018.81 1017.73 1016.41 1014.96 1013.49 1012.15 1011.02 1010.18 1009.64 1009.36 1009.29 1009.33 1009.42 1009.47 1009.47 1009.41 1009.33 1009.27 1009.27 1009.39 1009.61 1009.93 1010.30 1010.68 1011.00 1011.23 1011.36 1011.40 1011.39 1011.37 1011.41 1011.55 1011.81 1012.21
1019.27 1019.25 1019.32 1019.48 1019.70 1019.93 1020.10 1020.11 1019.89 1019.39 1018.58 1017.49 1016.18 1014.77 1013.36 1012.09 1011.04 1010.27 1009.77 1009.51 1009.43 1009.43 1009.44 1009.40 1009.28 1009.09 1008.87 1008.68 1008.56 1008.55 1008.66 1008.89 1009.19 1009.51 1009.79 1010.00 1010.11 1010.14 1010.12 1010.09 1010.11 1010.22 1010.46 1010.83
1019.32 1019.29 1019.33 1019.44 1019.60 1019.76 1019.85 1019.79 1019.51 1018.96 1018.13 1017.06 1015.81 1014.48 1013.17 1012.01 1011.06 1010.37 1009.92 1009.69 1009.59 1009.55 1009.48 1009.34 1009.12 1008.81 1008.47 1008.15 1007.91 1007.78 1007.79 1007.93 1008.15 1008.40 1008.64 1008.82 1008.92 1008.94 1008.92 1008.89 1008.91 1009.01 1009.24 1009.58
1019.33 1019.28 1019.27 1019.32 1019.39 1019.45 1019.43 1019.28 1018.92 1018.33 1017.51 1016.48 1015.32 1014.10 1012.94 1011.91 1011.09 1010.49 1010.10 1009.89 1009.77 1009.68 1009.55 1009.32 1008.99 1008.58 1008.14 1007.71 1007.36 1007.13 1007.04 1007.08 1007.20 1007.38 1007.56 1007.70 1007.78 1007.79 1007.77 1007.75 1007.77 1007.87 1008.08 1008.40
1019.31 1019.22 1019.15 1019.11 1019.07 1019.00 1018.86 1018.60 1018.16 1017.54 1016.74 1015.78 1014.74 1013.68 1012.67 1011.81 1011.12 1010.63 1010.30 1010.11 1009.97 1009.83 1009.62 1009.32 1008.91 1008.41 1007.88 1007.38 1006.94 1006.62 1006.43 1006.37 1006.40 1006.49 1006.59 1006.67 1006.70 1006.69 1006.65 1006.63 1006.64 1006.74 1006.93 1007.23
1019.24 1019.13 1019.00 1018.86 1018.69 1018.48 1018.20 1017.81 1017.30 1016.65 1015.88 1015.02 1014.11 1013.22 1012.39 1011.70 1011.15 1010.76 1010.50 1010.31 1010.16 1009.96 1009.69 1009.32 1008.84 1008.29 1007.70 1007.14 1006.64 1006.24 1005.97 1005.81 1005.74 1005.73 1005.73 1005.72 1005.68 1005.62 1005.55 1005.50 1005.50 1005.57 1005.74 1006.02
1019.17 1019.02 1018.82 1018.57 1018.27 1017.92 1017.49 1016.99 1016.40 1015.73 1015.00 1014.24 1013.48 1012.75 1012.11 1011.58 1011.17 1010.88 1010.66 1010.48 1010.29 1010.05 1009.72 1009.29 1008.77 1008.18 1007.57 1006.97 1006.44 1005.99 1005.64 1005.39 1005.22 1005.08 1004.97 1004.85 1004.72 1004.58 1004.44 1004.35 1004.31 1004.36 1004.50 1004.75
1019.09 1018.91 1018.64 1018.28 1017.85 1017.35 1016.78 1016.17 1015.52 1014.84 1014.16 1013.49 1012.87 1012.31 1011.84 1011.46 1011.17 1010.95 1010.76 1010.58 1010.36 1010.07 1009.68 1009.21 1008.66 1008.05 1007.43 1006.83 1006.28 1005.80 1005.40 1005.07 1004.78 1004.53 1004.28 1004.04 1003.79 1003.55 1003.34 1003.18 1003.09 1003.10 1003.21 1003.42
1019.00 1018.77 1018.43 1017.96 1017.41 1016.78 1016.10 1015.40 1014.70 1014.02 1013.39 1012.82 1012.33 1011.92 1011.60 1011.34 1011.14 1010.97 1010.80 1010.59 1010.32 1009.98 1009.55 1009.04 1008.47 1007.87 1007.26 1006.67 1006.13 1005.63 1005.19 1004.78 1004.40 1004.02 1003.65 1003.27 1002.90 1002.55 1002.24 1002.01 1001.87 1001.84 1001.92 1002.10
1018.86 1018.58 1018.15 1017.60 1016.95 1016.22 1015.45 1014.69 1013.97 1013.31 1012.74 1012.27 1011.89 1011.61 1011.40 1011.23 1011.09 1010.94 1010.75 1010.51 1010.18 1009.78 1009.30 1008.76 1008.18 1007.59 1007.01 1006.45 1005.92 1005.42 1004.94 1004.48 1004.01 1003.52 1003.03 1002.53 1002.03 1001.58 1001.19 1000.88 1000.69 1000.62 1000.67 1000.83
1018.63 1018.27 1017.78 1017.15 1016.42 1015.63 1014.83 1014.05 1013.35 1012.73 1012.23 1011.85 1011.57 1011.38 1011.25 1011.14 1011.03 1010.86 1010.64 1010.34 1009.95 1009.48 1008.95 1008.38 1007.80 1007.22 1006.67 1006.13 1005.63 1005.14 1004.64 1004.13 1003.59 1003.02 1002.42 1001.81 1001.22 1000.67 1000.21 999.85 999.61 999.51 999.53 999.68
1018.24 1017.81 1017.25 1016.57 1015.82 1015.02 1014.22 1013.48 1012.83 1012.29 1011.87 1011.57 1011.38 1011.26 1011.17 1011.08 1010.95 1010.76 1010.48 1010.10 1009.64 1009.11 1008.53 1007.94 1007.35 1006.79 1006.25 1005.75 1005.27 1004.79 1004.28 1003.74 1003.15 1002.51 1001.84 1001.15 1000.48 999.87 999.34 998.94 998.68 998.55 998.56 998.68
1017.68 1017.17 1016.56 1015.87 1015.13 1014.37 1013.64 1012.98 1012.42 1011.98 1011.65 1011.44 1011.31 1011.23 1011.16 1011.05 1010.89 1010.64 1010.28 1009.83 1009.30 1008.71 1008.08 1007.47 1006.87 1006.32 1005.81 1005.33 1004.87 1004.39 1003.89 1003.33 1002.70 1002.02 1001.29 1000.55 999.83 999.18 998.62 998.19 997.90 997.76 997.75 997.86
1016.94 1016.37 1015.74 1015.07 1014.39 1013.72 1013.10 1012.57 1012.13 1011.80 1011.57 1011.43 1011.34 1011.28 1011.20 1011.06 1010.83 1010.51 1010.08 1009.55 1008.95 1008.31 1007.65 1007.01 1006.42 1005.87 1005.38 1004.91 1004.46 1004.00 1003.49 1002.92 1002.27 1001.56 1000.81 1000.04 999.30 998.62 998.04 997.60 997.29 997.13 997.11 997.19
1016.08 1015.47 1014.85 1014.24 1013.65 1013.12 1012.64 1012.26 1011.96 1011.75 1011.61 1011.53 1011.47 1011.39 1011.27 1011.08 1010.78 1010.38 1009.88 1009.28 1008.63 1007.95 1007.27 1006.62 1006.03 1005.49 1005.00 1004.54 1004.10 1003.63 1003.11 1002.53 1001.87 1001.15 1000.39 999.61 998.86 998.17 997.59 997.13 996.81 996.63 996.57 996.62
1015.18 1014.56 1013.98 1013.45 1013.00 1012.62 1012.31 1012.08 1011.93 1011.82 1011.76 1011.71 1011.65 1011.54 1011.36 1011.10 1010.72 1010.25 1009.68 1009.04 1008.36 1007.65 1006.96 1006.31 1005.72 1005.18 1004.69 1004.23 1003.77 1003.29 1002.76 1002.16 1001.50 1000.77 1000.00 999.23 998.48 997.79 997.20 996.74 996.40 996.19 996.10 996.10
1014.35 1013.75 1013.24 1012.83 1012.52 1012.29 1012.15 1012.07 1012.03 1012.01 1011.99 1011.94 1011.85 1011.69 1011.44 1011.10 1010.65 1010.11 1009.50 1008.82 1008.12 1007.41 1006.72 1006.07 1005.48 1004.93 1004.43 1003.95 1003.47 1002.96 1002.40 1001.78 1001.10 1000.37 999.60 998.83 998.09 997.41 996.82 996.34 995.98 995.74 995.60 995.54
1013.70 1013.14 1012.72 1012.44 1012.26 1012.18 1012.17 1012.20 1012.25 1012.27 1012.26 1012.19 1012.04 1011.81 1011.48 1011.06 1010.54 1009.95 1009.30 1008.61 1007.90 1007.19 1006.51 1005.87 1005.26 1004.70 1004.17 1003.64 1003.12 1002.56 1001.96 1001.31 1000.61 999.87 999.10 998.34 997.61 996.94 996.35 995.86 995.48 995.20 995.02 994.91
Thickness
5696 5696 5695 5697 5695 5692 5688 5685 5688 5697 5699 5684 5695 5711 5729 5735 5729 5729 5729 5729 5728 5726 5722 5713 5703 5692 5682 5673 5665 5658 5649 5639 5630 5622 5614 5608 5602 5594 5587 5580 5574 5565 5557 5549
5692 5692 5697 5690 5683 5679 5678 5679 5688 5697 5687 5679 5694 5709 5727 5731 5728 5728 5727 5727 5727 5724 5720 5712 5701 5691 5683 5676 5667 5659 5651 5642 5633 5625 5617 5609 5601 5595 5587 5578 5571 5563 5555 5546
5686 5693 5685 5680 5679 5676 5678 5677 5683 5681 5684 5683 5677 5711 5730 5733 5725 5723 5723 5722 5721 5718 5715 5710 5699 5690 5682 5676 5669 5661 5653 5643 5634 5623 5612 5604 5596 5592 5585 5578 5571 5563 5554 5545
5685 5685 5677 5676 5676 5674 5676 5677 5670 5667 5668 5678 5668 5680 5718 5721 5721 5725 5725 5722 5718 5714 5709 5705 5698 5689 5682 5676 5666 5658 5650 5641 5632 5621 5613 5607 5601 5598 5594 5583 5573 5562 5552 5543
5685 5679 5674 5673 5675 5669 5673 5665 5663 5661 5661 5664 5668 5664 5702 5716 5715 5717 5719 5716 5712 5708 5703 5698 5693 5687 5680 5671 5663 5654 5646 5639 5630 5621 5614 5606 5603 5600 5592 5582 5573 5562 5552 5541
5679 5674 5672 5671 5667 5663 5662 5660 5657 5653 5658 5663 5667 5662 5687 5710 5702 5702 5707 5706 5704 5700 5697 5693 5688 5682 5675 5667 5659 5651 5644 5638 5629 5620 5612 5606 5603 5597 5589 5582 5573 5561 5551 5540
5674 5673 5668 5665 5662 5660 5657 5659 5663 5664 5664 5669 5654 5652 5678 5700 5695 5689 5688 5690 5691 5690 5689 5687 5683 5678 5672 5664 5656 5648 5641 5636 5628 5619 5612 5606 5601 5594 5588 5581 5570 5559 5549 5539
5663 5669 5665 5661 5658 5655 5651 5649 5646 5641 5650 5659 5654 5654 5688 5697 5689 5682 5680 5681 5682 5684 5683 5680 5677 5674 5669 5663 5655 5647 5641 5635 5626 5618 5612 5604 5596 5588 5584 5577 5568 5559 5550 5539
5660 5662 5657 5652 5650 5648 5646 5643 5639 5636 5635 5631 5652 5663 5681 5691 5686 5684 5681 5677 5676 5676 5674 5673 5671 5668 5664 5659 5653 5645 5638 5631 5624 5616 5608 5601 5593 5585 5580 5571 5562 5554 5545 5534
5656 5652 5656 5647 5643 5637 5639 5638 5630 5628 5625 5628 5645 5652 5665 5681 5681 5678 5672 5668 5667 5666 5665 5663 5662 5659 5655 5651 5645 5639 5632 5627 5619 5611 5603 5597 5589 5581 5572 5563 5557 5549 5539 5527
5649 5645 5650 5645 5641 5644 5630 5626 5626 5627 5622 5620 5625 5649 5674 5670 5668 5660 5658 5657 5655 5654 5652 5651 5650 5647 5644 5640 5635 5630 5623 5617 5611 5604 5597 5591 5584 5575 5566 5559 5553 5543 5532 5521
5639 5640 5641 5646 5639 5631 5632 5632 5627 5621 5624 5615 5617 5642 5677 5666 5656 5648 5647 5646 5644 5640 5638 5638 5637 5636 5634 5631 5627 5621 5615 5609 5603 5597 5590 5584 5577 5568 5561 5556 5548 5536 5526 5515
5630 5631 5632 5641 5632 5622 5620 5622 5619 5619 5614 5614 5610 5639 5670 5659 5652 5645 5639 5635 5632 5628 5626 5626 5625 5624 5623 5620 5617 5612 5606 5600 5594 5587 5581 5575 5569 5562 5556 5549 5539 5528 5518 5507
5627 5628 5629 5630 5638 5634 5624 5621 5612 5607 5609 5616 5623 5636 5653 5649 5639 5634 5628 5624 5620 5617 5614 5613 5612 5612 5611 5609 5606 5602 5597 5591 5583 5576 5570 5566 5561 5554 5547 5539 5529 5519 5509 5499
5618 5622 5627 5631 5632 5622 5618 5622 5621 5611 5613 5611 5627 5631 5637 5631 5622 5617 5615 5612 5608 5605 5602 5600 5599 5598 5598 5597 5594 5590 5585 5580 5572 5565 5560 5556 5550 5543 5536 5528 5520 5510 5501 5491
5611 5612 5612 5617 5620 5612 5610 5621 5623 5619 5616 5613 5616 5618 5623 5614 5609 5605 5603 5601 5596 5593 5591 5589 5587 5585 5583 5581 5578 5575 5572 5567 5560 5554 5550 5545 5538 5532 5525 5518 5510 5502 5493 5483
5606 5603 5601 5611 5606 5599 5611 5629 5626 5620 5619 5616 5615 5619 5610 5603 5597 5594 5592 5590 5585 5582 5580 5577 5575 5572 5568 5566 5562 5559 5555 5551 5546 5541 5537 5532 5527 5521 5515 5509 5501 5494 5485 5476
5602 5594 5592 5594 5592 5587 5632 5632 5622 5617 5618 5614 5606 5602 5596 5591 5588 5586 5584 5579 5574 5571 5568 5565 5562 5559 5555 5551 5547 5543 5538 5535 5532 5529 5526 5522 5517 5512 5507 5500 5494 5487 5478 5469
5595 5590 5586 5580 5590 5605 5621 5620 5610 5603 5608 5606 5596 5590 5587 5583 5582 5584 5577 5567 5561 5558 5555 5551 5548 5544 5541 5538 5534 5529 5527 5526 5524 5521 5518 5514 5509 5504 5499 5493 5487 5479 5471 5463
5575 5579 5578 5573 5565 5584 5619 5606 5596 5590 5593 5591 5583 5578 5575 5570 5567 5574 5563 5555 5551 5546 5542 5538 5535 5532 5530 5527 5522 5517 5517 5517 5516 5513 5509 5504 5500 5496 5491 5486 5479 5471 5462 5454
5573 5568 5566 5569 5566 5590 5605 5588 5581 5577 5585 5576 5571 5566 5562 5556 5552 5553 5549 5543 5537 5532 5528 5525 5522 5520 5518 5514 5509 5507 5508 5508 5506 5501 5497 5493 5490 5486 5481 5476 5469 5461 5452 5443
5583 5576 5567 5565 5561 5575 5590 5575 5574 5577 5572 5564 5559 5554 5548 5545 5541 5537 5532 5528 5523 5520 5517 5513 5511 5509 5504 5499 5497 5499 5499 5497 5493 5489 5486 5483 5479 5475 5469 5463 5457 5449 5441 5432
5574 5580 5581 5574 5582 5588 5574 5571 5568 5559 5554 5551 5545 5539 5533 5529 5526 5522 5517 5514 5511 5507 5505 5502 5499 5496 5493 5490 5487 5487 5488 5485 5481 5478 5475 5472 5468 5463 5457 5451 5445 5438 5430 5422
5570 5564 5561 5567 5579 5574 5566 5558 5553 5546 5540 5535 5528 5523 5517 5513 5510 5506 5503 5501 5498 5495 5492 5489 5485 5484 5484 5481 5478 5476 5475 5472 5469 5466 5464 5461 5457 5453 5447 5440 5434 5427 5420 5412
5561 5555 5553 5558 5563 5559 5557 5545 5538 5532 5525 5519 5513 5506 5500 5495 5492 5490 5488 5487 5484 5481 5478 5474 5470 5471 5472 5472 5470 5467 5464 5461 5458 5455 5452 5450 5445 5441 5436 5430 5423 5417 5410 5402
5553 5546 5543 5551 5551 5542 5542 5530 5520 5513 5507 5500 5494 5489 5484 5479 5476 5475 5473 5471 5468 5466 5464 5462 5461 5461 5463 5462 5460 5458 5454 5450 5446 5444 5441 5438 5434 5429 5423 5419 5414 5407 5399 5392